Location: Newark
(30.0333°N, 31.2167°E)
Time: 02:13:15
(UTC+00:00)

Tiros 1 despin weight - Pass Details

Date: 27 January 2020
Orbit: 594 x 642 km, 48.2° (Epoch: 19 February)

Event Time Altitude Azimuth Distance (km) Brightness Sun altitude
Rises 15:22:03 0° 308° (NW) 2,921 ? 0.2°
Reaches altitude 10° 15:24:23 10° 305° (NW) 2,017 ? -0.2°
Maximum altitude 15:28:58 63° 225° (SW) 712 ? -1.2°
Drops below altitude 10° 15:33:35 10° 144° (SE) 2,021 ? -2.1°
Sets 15:35:56 0° 141° (SE) 2,927 ? -2.6°
